Location: Borovka
(49.7741°N, 14.5280°E)
Time: 16:17:37
(UTC+00:00)

Thor Agena Rocket - Pass Details

Date: 13 February 2026
Orbit: 755 x 801 km, 99.1° (Epoch: 8 March)

Event Time Altitude Azimuth Distance (km) Brightness Sun altitude
Rises 04:36:07 0° 25° (NNE) 3,311 7.1 -16.6°
Reaches altitude 10° 04:38:55 10° 40° (NE) 2,381 6.6 -16.1°
Maximum altitude 04:43:07 24° 93° (E) 1,618 6.1 -15.5°
Drops below altitude 10° 04:47:18 10° 146° (SE) 2,374 6.6 -14.8°
Sets 04:50:04 0° 160° (SSE) 3,299 7.1 -14.3°
